Evansville, IN

1:17 AM CDT on April 21, 2018 (GMT -0500)
Evansville Regional

Weather History for KEVV - October, 2014

Change the Weather History Date:

Wednesday, October 15, 2014

  Actual Average Record
Temperature  
Mean Temperature 55 °F 58 °F  
Max Temperature 57 °F 70 °F 90 °F (1963)
Min Temperature 52 °F 46 °F 29 °F (1961)
Degree Days  
Heating Degree Days 10 8  
Month to date heating degree days 77 95  
Since 1 July heating degree days 113 142  
Cooling Degree Days 0 1  
Month to date cooling degree days 28 22  
Year to date cooling degree days 1471 1388  
Growing Degree Days 5 (Base 50)    
Moisture  
Dew Point 52 °F    
Average Humidity 90    
Maximum Humidity 93    
Minimum Humidity 86    
Precipitation  
Precipitation 0.22 in 0.11 in 1.56 in (1928)
Month to date precipitation 3.60 1.52  
Year to date precipitation 40.33 35.49  
Snow  
Snow 0.00 in 0.00 in 0.00 in (2002)
Month to date snowfall 0.0 0.0  
Since 1 July snowfall 0.0 0.0  
Since 1 September snowfall 0.0 0.0  
Snow Depth 0.00 in    
Sea Level Pressure  
Sea Level Pressure 29.78 in    
Wind  
Wind Speed 8 mph (West)    
Max Wind Speed 15 mph    
Max Gust Speed 21 mph    
Visibility 6 miles    
Events Rain    
T = Trace of Precipitation, MM = Missing Value Source: NWS Daily Summary

Daily Weather History Graph

Daily Weather History Graph

Search for Another Location

Airport or City:

Astronomy

Oct. 15, 2014 Rise Set
Actual Time 6:58 AM CDT 6:12 PM CDT
Civil Twilight 6:32 AM CDT 6:38 PM CDT
Nautical Twilight 6:01 AM CDT 7:09 PM CDT
Astronomical Twilight 5:31 AM CDT 7:39 PM CDT
Moon No Moon Rise 1:38 PM CDT (10/15)
Length of Visible Light 12h 06m
Length of Day
11h 13m
Waning Gibbous, 51% of the Moon is Illuminated
Oct 15
Waning Gibbous
Oct 15
Last Quarter
Oct 23
New
Oct 30
First Quarter
Nov 6
Full

Hourly Weather History & Observations

Time (CDT) Temp. Dew Point Humidity Pressure Visibility Wind Dir Wind Speed Gust Speed Precip Events Conditions
12:09 AM 55.0 °F 53.1 °F 93% 29.71 in 6.0 mi SSW 6.9 mph - 0.01 in Rain Light Rain
12:54 AM 55.0 °F 52.0 °F 89% 29.72 in 10.0 mi SW 11.5 mph - 0.01 in   Overcast
1:54 AM 54.0 °F 52.0 °F 93% 29.72 in 4.0 mi SW 9.2 mph - 0.01 in   Overcast
2:12 AM 54.0 °F 52.0 °F 93% 29.72 in 4.0 mi SW 11.5 mph - 0.00 in Rain Light Rain
2:19 AM 54.0 °F 52.0 °F 93% 29.72 in 4.0 mi SSW 10.4 mph - 0.00 in Rain Light Rain
2:28 AM 54.0 °F 52.0 °F 93% 29.72 in 6.0 mi SSW 8.1 mph - 0.00 in   Overcast
2:54 AM 54.0 °F 52.0 °F 93% 29.72 in 5.0 mi SSW 10.4 mph - 0.00 in   Overcast
3:30 AM 54.0 °F 52.0 °F 93% 29.72 in 3.0 mi SW 8.1 mph - N/A   Overcast
3:54 AM 54.0 °F 52.0 °F 93% 29.72 in 5.0 mi SSW 6.9 mph - N/A   Overcast
4:54 AM 54.0 °F 52.0 °F 93% 29.73 in 10.0 mi SW 8.1 mph - N/A   Overcast
5:54 AM 54.0 °F 52.0 °F 93% 29.73 in 3.0 mi SW 9.2 mph - N/A   Overcast
6:54 AM 54.0 °F 52.0 °F 93% 29.74 in 3.0 mi SW 8.1 mph - N/A   Overcast
7:54 AM 54.0 °F 52.0 °F 93% 29.75 in 7.0 mi SW 9.2 mph - 0.00 in Rain Light Rain
8:14 AM 54.0 °F 52.0 °F 93% 29.75 in 2.0 mi SW 8.1 mph - 0.00 in Rain Light Rain
8:43 AM 54.0 °F 52.0 °F 93% 29.75 in 4.0 mi SW 9.2 mph - 0.01 in   Overcast
8:52 AM 53.6 °F 51.8 °F 94% 29.75 in 2.0 mi WSW 9.2 mph - 0.01 in   Overcast
8:54 AM 54.0 °F 52.0 °F 93% 29.75 in 2.0 mi WSW 8.1 mph - 0.01 in   Overcast
9:54 AM 55.0 °F 53.1 °F 93% 29.75 in 2.5 mi WSW 9.2 mph - 0.03 in Rain Light Rain
9:56 AM 55.0 °F 53.1 °F 93% 29.76 in 3.0 mi WSW 9.2 mph - 0.00 in Rain Light Rain
10:54 AM 55.9 °F 54.0 °F 93% 29.76 in 3.0 mi WSW 9.2 mph - 0.02 in   Overcast
11:22 AM 55.9 °F 53.1 °F 90% 29.77 in 3.0 mi West 11.5 mph - 0.00 in   Overcast
11:33 AM 55.9 °F 53.1 °F 90% 29.77 in 3.0 mi West 10.4 mph - 0.00 in   Overcast
11:54 AM 55.9 °F 53.1 °F 90% 29.76 in 5.0 mi West 11.5 mph - 0.00 in Rain Light Rain
12:14 PM 55.9 °F 54.0 °F 93% 29.77 in 6.0 mi West 9.2 mph - 0.00 in   Overcast
12:38 PM 55.9 °F 53.1 °F 90% 29.76 in 2.5 mi West 9.2 mph - 0.01 in Rain Light Rain
12:54 PM 55.0 °F 53.1 °F 93% 29.76 in 2.5 mi West 10.4 mph - 0.02 in Rain Light Rain
1:14 PM 55.0 °F 52.0 °F 89% 29.76 in 6.0 mi West 13.8 mph 20.7 mph 0.00 in   Overcast
1:31 PM 55.0 °F 53.1 °F 93% 29.75 in 2.0 mi West 11.5 mph - 0.00 in Rain Light Rain
1:43 PM 55.0 °F 53.1 °F 93% 29.75 in 4.0 mi West 9.2 mph - 0.00 in   Overcast
1:54 PM 55.0 °F 52.0 °F 89% 29.75 in 7.0 mi West 10.4 mph - 0.00 in   Overcast
2:03 PM 55.0 °F 52.0 °F 89% 29.76 in 10.0 mi West 8.1 mph 19.6 mph N/A   Overcast
2:54 PM 55.0 °F 52.0 °F 89% 29.77 in 7.0 mi West 8.1 mph - N/A   Overcast
3:08 PM 55.0 °F 52.0 °F 89% 29.77 in 3.0 mi West 9.2 mph 20.7 mph 0.00 in Rain Light Rain
3:51 PM 55.4 °F 51.8 °F 88% 29.78 in 2.0 mi West 8.1 mph - 0.00 in Rain Light Rain
3:54 PM 55.0 °F 52.0 °F 89% 29.78 in 2.0 mi WNW 8.1 mph - 0.00 in Rain Light Rain
4:20 PM 55.0 °F 52.0 °F 89% 29.79 in 2.0 mi West 8.1 mph - 0.01 in Rain Light Rain
4:54 PM 55.0 °F 52.0 °F 89% 29.79 in 3.0 mi West 8.1 mph 16.1 mph 0.02 in Rain Light Rain
5:01 PM 55.0 °F 52.0 °F 89% 29.80 in 3.0 mi WNW 10.4 mph - 0.00 in Rain Light Rain
5:54 PM 54.0 °F 51.1 °F 90% 29.81 in 3.0 mi WNW 10.4 mph - 0.07 in Rain Light Rain
6:03 PM 53.1 °F 51.1 °F 93% 29.81 in 5.0 mi Variable 5.8 mph - 0.01 in Rain Light Rain
6:34 PM 53.1 °F 51.1 °F 93% 29.82 in 6.0 mi WNW 6.9 mph - 0.03 in Rain Light Rain
6:49 PM 53.6 °F 51.8 °F 94% 29.82 in 7.0 mi West 9.2 mph - 0.04 in Rain Light Rain
6:54 PM 53.1 °F 51.1 °F 93% 29.82 in 9.0 mi Variable 6.9 mph - 0.04 in Rain Light Rain
7:01 PM 53.1 °F 51.1 °F 93% 29.83 in 9.0 mi WNW 5.8 mph - 0.00 in   Overcast
7:54 PM 53.1 °F 51.1 °F 93% 29.83 in 10.0 mi West 5.8 mph - 0.00 in   Overcast
8:01 PM 53.1 °F 51.1 °F 93% 29.83 in 10.0 mi West 5.8 mph - N/A   Overcast
8:33 PM 53.1 °F 50.0 °F 89% 29.84 in 8.0 mi WNW 4.6 mph - 0.00 in   Overcast
8:52 PM 53.6 °F 50.0 °F 88% 29.85 in 10.0 mi West 6.9 mph - 0.00 in Rain Light Rain
8:54 PM 53.1 °F 50.0 °F 89% 29.85 in 10.0 mi WNW 6.9 mph - 0.00 in Rain Light Rain
9:08 PM 53.6 °F 50.0 °F 88% 29.85 in 10.0 mi WNW 5.8 mph - N/A   Overcast
9:54 PM 53.1 °F 50.0 °F 89% 29.85 in 10.0 mi WNW 5.8 mph - 0.00 in   Overcast
10:54 PM 53.1 °F 50.0 °F 89% 29.83 in 10.0 mi West 5.8 mph - N/A   Overcast
11:09 PM 53.1 °F 50.0 °F 89% 29.84 in 10.0 mi West 4.6 mph - N/A   Overcast
11:40 PM 53.1 °F 50.0 °F 89% 29.84 in 10.0 mi West 8.1 mph - N/A   Overcast
11:54 PM 53.1 °F 50.0 °F 89% 29.84 in 7.0 mi WNW 6.9 mph - N/A   Overcast